Probability
0 0 0 0 0 0 1 1 0 0 0 0 0 0 0 0 0 0 0 0 0 0 0 0 0 0 0 0 0 0 0 0 0 0 0 0 0 0 0 0 0 0 0
0 0 0 0 0 1 2 2 1 0 0 0 0 0 0 0 0 0 0 0 0 0 0 0 0 0 0 0 0 0 0 0 0 0 0 0 0 0 0 0 0 0 0
0 0 0 0 0 1 2 3 2 1 0 0 0 0 0 0 0 0 0 0 0 0 0 0 0 0 0 0 0 0 1 1 1 1 1 0 0 0 0 0 0 0 0
0 0 0 0 1 1 1 2 2 1 0 0 0 0 0 0 0 0 0 0 0 0 0 0 0 0 0 0 0 0 1 2 2 1 1 1 1 0 0 0 0 0 0
0 0 1 1 2 2 1 1 2 1 0 0 0 0 0 0 0 0 0 0 0 0 0 0 0 0 0 0 0 0 0 1 1 1 1 1 1 0 0 0 0 0 0
0 0 1 3 3 1 0 1 2 1 0 0 0 0 0 0 0 0 0 0 0 1 1 1 0 0 0 0 0 0 0 0 0 0 0 1 1 0 0 0 0 0 0
0 0 1 2 2 1 1 1 2 1 0 0 0 0 0 0 0 0 0 0 0 1 2 2 1 0 0 0 0 0 0 0 0 0 0 0 0 0 0 0 0 0 0
0 0 0 1 1 2 2 2 2 1 1 1 0 0 0 1 1 0 0 0 0 0 1 2 2 1 0 0 0 0 0 0 0 0 0 0 0 0 0 0 0 0 0
0 0 0 0 1 1 2 3 3 2 2 2 1 0 1 2 2 1 0 0 0 0 0 1 1 1 0 0 0 0 0 0 0 0 0 0 0 0 0 0 0 0 0
0 0 0 0 0 0 1 2 3 3 3 3 2 1 1 2 2 2 1 1 0 0 0 0 0 0 0 0 0 0 0 0 0 0 0 0 0 0 0 0 0 0 0
0 0 0 0 0 0 1 1 2 3 3 3 3 2 1 1 1 2 2 1 0 0 0 0 0 0 0 0 0 0 0 0 0 0 0 0 0 0 0 0 0 0 0
0 0 0 0 0 0 0 0 1 3 3 3 3 3 2 1 1 1 1 1 0 0 0 0 0 0 0 0 0 0 0 0 0 0 0 0 0 0 0 0 0 0 0
1 1 1 1 0 0 0 0 1 2 3 3 3 3 3 3 3 2 1 0 0 0 0 0 0 0 0 0 0 0 0 0 0 0 0 0 0 0 0 0 0 0 0
3 3 2 2 1 1 1 1 0 1 3 3 3 3 3 4 5 4 1 0 0 0 0 0 0 0 0 0 0 0 0 0 0 0 0 0 0 0 0 0 0 0 0
4 5 5 3 2 2 2 2 1 2 3 4 4 4 3 4 5 4 3 2 1 1 0 0 0 0 0 0 0 0 0 0 0 0 0 0 0 0 0 0 0 0 0
2 5 5 4 3 3 3 3 3 4 5 5 5 5 4 4 4 4 4 4 3 2 1 0 0 0 0 0 0 0 0 0 0 0 0 0 0 0 0 0 0 0 0
1 3 5 4 3 3 3 4 5 6 6 5 5 5 5 5 4 4 5 6 6 4 2 0 0 0 0 0 0 0 0 0 0 0 0 0 0 0 0 0 0 0 0
0 2 4 4 3 3 4 5 5 5 4 4 4 4 4 5 5 4 6 7 7 6 4 2 0 0 0 0 0 0 0 0 0 0 0 0 0 0 0 0 0 0 0
0 0 2 3 3 3 5 5 4 4 3 3 3 3 4 4 4 4 5 7 7 7 6 3 1 1 1 0 0 0 0 0 0 0 0 0 0 0 0 0 0 0 0
0 0 1 2 3 4 6 5 4 3 3 3 3 3 4 4 4 3 4 5 7 8 7 5 3 2 1 0 0 0 0 0 0 0 0 0 0 0 0 0 0 0 0
0 0 1 2 3 4 6 6 4 3 3 3 3 3 4 4 4 4 4 4 5 6 6 6 5 3 2 0 0 0 0 0 0 1 1 0 0 0 0 0 0 0 0
0 0 1 3 3 5 6 6 5 4 4 4 4 4 4 4 4 4 5 4 4 4 4 5 5 4 2 1 0 0 0 0 0 1 1 0 0 0 0 0 0 0 0
0 1 2 3 4 6 7 6 6 6 6 6 5 5 4 3 3 4 4 3 3 2 3 3 3 2 2 2 1 0 0 0 0 1 1 0 0 0 0 0 0 0 0
1 2 3 4 5 6 6 5 5 6 6 6 5 4 3 2 2 2 1 1 1 1 1 1 1 0 1 2 2 1 0 0 0 0 0 0 0 0 0 0 0 0 0
2 2 3 3 4 5 4 3 4 4 4 3 3 2 1 1 1 1 0 0 0 0 0 0 0 0 0 1 2 1 0 0 0 0 0 0 0 0 0 0 0 0 0
1 2 3 3 4 4 4 3 2 3 2 1 1 1 0 0 0 0 0 0 0 0 0 0 0 0 0 0 1 0 0 0 0 0 0 0 0 0 0 0 0 0 0
Wind_Speed
6 5 5 5 5 4 4 5 5 4 4 3 2 2 2 2 2 2 2 2 2 3 3 2 3 2 2 2 2 2 3 2 1 1 2 3 3 3 3 3 3 3 3
7 7 6 5 5 5 4 4 4 4 4 2 2 2 2 2 2 2 2 2 2 2 2 2 2 2 2 2 2 1 1 1 1 1 0 2 3 3 2 2 2 2 2
8 8 7 6 6 5 5 4 4 4 4 4 2 2 2 2 2 2 1 1 1 2 2 2 2 2 1 1 1 1 0 0 0 1 2 1 1 2 2 2 2 2 1
7 7 7 7 7 6 5 5 5 4 4 4 3 4 3 2 2 1 2 2 1 1 1 1 1 1 1 1 0 0 0 1 0 1 1 2 2 1 1 2 1 1 1
8 8 8 7 7 6 5 5 5 5 4 4 3 3 3 2 2 2 2 2 2 1 1 0 0 0 0 0 0 0 1 1 1 1 1 1 1 2 1 1 1 1 1
8 8 8 7 6 6 5 5 5 5 4 4 5 4 4 3 2 2 2 2 1 1 1 0 0 0 0 0 0 0 0 1 1 1 1 1 1 1 1 1 1 1 1
9 9 9 8 7 7 6 6 6 5 5 6 5 5 4 4 3 3 3 2 2 1 1 1 1 1 1 1 1 1 1 1 1 2 1 2 2 1 2 2 1 0 1
9 9 9 8 7 7 7 7 6 6 6 6 5 5 5 3 3 3 2 3 2 2 2 2 2 2 1 1 1 2 2 1 1 1 1 1 2 2 2 2 2 2 1
8 8 8 8 8 7 7 7 6 6 6 6 5 5 4 4 3 4 3 3 3 2 3 3 2 2 2 2 2 2 2 2 2 1 1 2 1 2 2 2 3 3 2
8 8 7 7 7 7 7 6 6 6 5 5 4 3 4 4 4 4 4 3 3 3 3 3 3 3 3 3 2 2 2 2 2 2 2 2 2 1 2 2 3 3 3
6 7 7 7 6 6 6 6 6 5 5 5 4 4 3 3 4 4 3 4 3 4 4 4 4 3 3 3 2 3 3 3 3 2 3 3 2 2 2 2 3 3 3
4 5 6 7 6 6 6 6 6 5 5 4 4 4 3 3 3 3 4 4 3 4 4 4 4 3 3 3 3 3 3 4 3 3 3 3 2 3 3 2 3 3 3
4 5 6 6 6 7 6 6 6 5 5 4 4 4 4 4 4 3 3 3 3 3 3 3 4 3 3 4 4 4 4 4 4 4 4 3 3 3 3 3 3 3 3
4 5 5 6 6 6 6 6 6 5 5 5 5 5 5 4 4 3 3 3 3 3 3 3 3 3 4 4 4 4 4 4 4 3 4 4 3 4 3 3 3 3 3
3 5 5 5 6 6 6 6 6 5 5 5 5 4 4 4 4 4 3 3 3 3 3 3 3 3 3 3 3 4 4 4 4 3 3 2 2 3 2 2 2 2 3
3 4 5 5 6 6 6 6 6 5 5 5 4 4 4 4 4 4 4 3 3 3 3 3 3 3 2 1 1 3 3 3 3 3 3 2 3 1 1 1 2 2 3
3 3 4 5 5 5 5 6 5 5 5 5 4 4 4 4 4 4 4 4 4 4 3 3 3 3 2 2 1 3 3 3 3 3 3 2 2 3 3 3 3 1 1
3 3 4 4 3 3 4 4 4 5 5 5 5 4 4 4 4 4 4 4 4 4 4 3 3 3 2 3 2 3 4 3 3 3 3 3 3 3 3 3 3 3 2
3 3 3 3 3 3 4 4 4 5 5 5 5 5 5 5 4 4 4 4 4 4 4 4 4 4 3 3 3 4 4 3 3 3 3 3 4 1 3 4 4 3 2
2 2 2 2 3 3 3 4 5 5 5 5 5 5 5 5 5 4 4 3 4 4 3 3 4 4 4 3 4 5 3 3 3 2 3 2 3 1 3 4 4 3 2
2 2 2 2 2 2 4 4 4 5 4 4 4 5 5 5 5 4 4 3 3 3 4 4 3 4 3 3 4 5 4 3 3 3 3 2 2 2 2 3 3 2 2
2 2 2 2 2 3 4 4 4 4 3 3 4 5 5 4 4 4 4 4 4 4 4 3 3 3 3 2 3 4 5 4 4 3 2 1 3 2 2 3 1 1 2
2 2 2 2 2 3 4 4 3 3 3 4 4 4 5 4 4 4 4 3 3 3 3 3 3 2 2 2 3 4 4 4 3 2 0 1 3 3 3 2 2 3 3
2 2 3 3 3 3 3 3 3 3 4 4 4 4 5 4 4 3 3 3 3 3 3 3 3 3 2 2 2 3 3 4 4 3 2 3 3 3 2 2 3 3 2
3 3 4 4 4 4 3 3 3 4 4 5 4 4 4 4 3 3 2 3 3 3 3 3 3 3 3 2 2 3 3 3 3 2 2 2 3 3 3 3 3 3 3
3 4 4 5 4 3 3 3 4 4 4 4 4 4 3 3 3 3 2 2 3 3 4 4 4 3 2 1 3 4 3 3 3 3 3 3 3 3 3 3 3 3 3
Wind_Direction
174 166 167 166 167 164 160 149 152 149 146 142 143 136 128 121 100 78 69 70 67 73 76 75 77 74 81 86 90 84 93 82 74 98 99 98 87 80 77 67 65 69 63
178 172 174 172 179 171 168 160 153 151 153 148 150 147 133 130 109 103 89 76 76 78 75 76 86 91 91 98 90 88 78 86 24 352 278 146 139 110 96 88 77 72 75
189 177 180 179 182 181 177 171 163 158 162 157 150 147 136 144 139 134 107 75 70 79 73 67 78 84 92 93 108 134 110 72 87 4 336 334 57 117 115 93 100 80 72
195 184 183 184 185 184 184 181 171 168 164 159 166 170 176 163 156 149 140 155 125 98 79 75 67 95 77 91 143 139 263 305 323 62 344 348 7 304 144 134 101 78 68
193 185 186 186 184 177 182 185 175 171 167 170 173 197 192 174 162 165 163 164 139 130 116 80 30 90 119 86 41 351 288 282 315 328 332 356 309 292 293 156 146 138 105
188 184 182 183 177 172 177 183 183 176 177 185 190 204 196 189 179 184 185 185 162 180 171 178 255 279 268 234 192 200 285 310 315 299 295 292 288 295 301 268 218 141 117
183 183 181 182 178 176 179 185 185 183 186 195 202 206 208 210 207 202 203 210 196 200 214 202 217 235 261 262 245 239 265 254 272 281 303 309 299 309 297 285 271 231 163
183 183 184 185 182 180 182 187 189 191 193 203 209 210 208 214 218 212 215 219 224 223 224 214 217 223 231 233 223 258 265 271 251 268 274 282 290 282 280 288 284 262 207
185 188 188 189 187 186 187 191 190 193 196 205 210 209 212 214 220 220 218 223 230 231 231 218 219 221 219 231 219 237 244 258 276 277 263 268 279 276 282 275 277 280 269
188 189 190 192 192 191 191 191 196 197 196 200 203 202 213 212 221 226 223 221 222 227 222 220 216 216 211 216 222 245 262 246 238 270 276 271 263 257 261 262 264 275 284
190 190 191 192 193 189 187 187 191 194 193 199 199 199 204 211 216 219 226 225 221 224 221 218 220 220 219 215 207 235 242 247 239 228 249 258 263 248 239 248 248 255 264
196 194 191 187 187 188 188 188 186 188 192 196 196 196 196 203 208 211 216 221 223 223 228 221 225 229 233 232 223 224 236 245 246 244 246 255 246 249 259 254 251 247 251
195 187 190 189 186 186 188 189 187 190 188 191 198 197 198 203 208 213 214 218 221 223 222 226 226 228 235 238 239 234 237 243 247 248 249 255 253 248 247 250 255 251 241
200 191 192 193 190 189 190 191 192 194 192 192 197 203 206 206 211 216 222 220 220 221 225 227 229 235 238 235 239 244 245 243 244 248 252 259 258 261 261 247 248 247 234
214 200 198 197 194 193 195 196 198 197 197 198 201 204 207 204 210 213 219 218 218 227 226 231 229 231 238 242 244 247 247 244 239 238 243 265 307 326 308 278 252 234 233
233 213 206 203 203 200 199 198 199 198 198 199 201 196 204 201 208 213 213 214 215 225 225 226 223 221 217 112 263 268 244 236 236 234 235 231 222 211 194 338 340 305 256
246 227 213 209 210 209 204 200 198 194 196 197 196 195 202 206 211 211 210 212 215 219 225 225 222 223 193 148 192 264 263 246 243 243 243 240 245 237 217 195 200 220 290
263 243 226 214 208 201 197 190 188 190 194 199 199 199 204 210 212 213 215 219 218 214 217 220 221 228 205 156 187 229 243 246 249 254 252 244 241 235 247 225 216 223 226
282 263 237 221 204 192 186 182 185 192 198 205 207 205 206 209 211 213 217 220 221 218 216 219 220 222 213 174 203 237 237 238 239 243 252 251 247 208 258 246 230 223 214
299 280 238 212 203 195 188 193 197 201 207 209 211 209 207 207 210 212 213 214 215 220 220 220 225 230 233 179 204 236 235 237 239 241 234 233 256 205 234 241 236 235 239
303 279 233 210 211 205 202 208 207 214 213 208 206 207 206 205 203 204 205 208 213 214 219 223 226 233 241 199 200 226 238 233 233 232 231 199 166 178 205 250 251 261 273
300 265 228 225 217 211 214 218 219 216 209 202 202 203 200 197 195 195 201 205 206 209 212 221 221 227 229 234 202 209 236 265 242 239 238 191 145 178 211 234 254 270 257
281 260 237 236 231 224 224 223 220 210 204 202 204 201 198 198 198 195 196 202 205 210 214 219 222 221 224 209 200 207 221 248 252 250 347 121 155 185 207 220 229 225 235
273 251 240 239 239 237 238 237 218 209 209 207 207 205 201 199 201 202 204 206 207 214 218 220 226 228 223 224 212 211 209 211 229 231 180 172 181 207 234 214 219 233 239
265 246 241 243 243 241 240 229 219 216 220 219 211 207 205 203 206 211 212 219 223 224 230 233 233 232 234 237 246 236 231 224 220 224 220 214 209 218 222 223 224 228 227
262 251 244 242 243 242 237 223 217 221 226 224 215 208 201 200 207 207 203 178 215 213 224 240 246 252 258 236 212 221 228 226 209 214 222 219 221 227 230 229 228 228 228